Погода в Клетском

Россия / Волгоградская область     48°35′55″N   44°41′45″E
темп.,
°C
ветер,
м/с
пор.,
м/с
влажн.,
%
обл.,
%
осадки,
мм/ч
давл.,
гПа
погр.,
м
19 сентября, вс
вс1900:00+12в5114931 0.0 1020288
03:00+11в510535 0.0 1020245
06:00+10вюв4115638 0.0 1020253
09:00+17вюв794088 0.0 1020625
12:00+22юв783117 0.0 10191653
15:00+23юв892859 0.0 10171896
18:00+20вюв6103516 0.0 1016274
21:00+17вюв8164097 0.0 1016555
20 сентября, пн
пн2000:00+17юв7134699 0.0 1016615
03:00+15юв61253100 0.0 1015487
06:00+15юв51058100 0.3 1015451
09:00+15юв61159100 0.6 1014430
12:00+19ююв584966 0.3 1014923
15:00+24ююз5746100 0.5 10121690
18:00+19юз3573100 1.6 101277
21:00+17ююв337926 1.8 101330
21 сентября, вт
вт2100:00+17юз337679 0.0 101328
03:00+16юз117313 0.0 101311
06:00+16ю2269100 0.0 101314
09:00+21ю354892 0.0 1013469
12:00+25юз6839100 0.0 10132037
15:00+22з2346100 0.0 1011109
18:00+16ссз6975100 0.1 1011307
21:00+16с3679100 0.4 1011308
22 сентября, ср
ср2200:00+14ююз1296100 14.9 1011125
03:00+15зюз3692100 17.8 1010445
06:00+14зсз478661 0.2 1012418
09:00+14зсз557120 0.2 1013734
12:00+17зсз445121 0.0 10141345
15:00+18з3340100 0.0 10141546
18:00+15з33503 0.0 101546
21:00+13з34572 0.0 101659
23 сентября, чт
чт2300:00+12зсз22625 0.0 101621
03:00+12зсз116470 0.0 101615
06:00+11ссв116688 0.0 101616
09:00+15св22495 0.0 1016516
12:00+18св2239100 0.0 1014988
15:00+18св3451100 0.0 1013366
18:00+18ссв5856100 0.0 1011226
21:00+17в71343100 0.0 1010425